920  
ASUS45 KCYS 201710  
RWRWY  
 
WYOMING REGIONAL WEATHER ROUNDUP  
NATIONAL WEATHER SERVICE CHEYENNE WY  
1100 AM MDT TUE OCT 20 2020  
 
NOTE: "FAIR" INDICATES FEW OR NO CLOUDS BELOW 12,000 FEET  
WITH NO SIGNIFICANT WEATHER AND/OR S TO VISIBILITY
.  
 
WYZ001-201800-   
..YELLOWSTONE NATIONAL PARK
 
 
 
CITY SKY/WX TMP DP RH WIND PRES REMARKS
 
LK YELLOWSTONE N/A 39 27 62 W8 30.09R WCI 33  
W YELLOWSTONE NOT AVBL  
 

 
WYZ002>013-054>058-071-098>099-201800-   
..NORTHERN WYOMING
 
 
 
CITY SKY/WX TMP DP RH WIND PRES REMARKS
 
JACKSON PTSUNNY 49 30 48 SW9 30.07R  
CODY CLOUDY 40 34 79 NE8 30.05R WCI 34  
GREYBULL PTSUNNY 49 34 56 NW15 30.00R  
WORLAND CLOUDY 45 39 79 W8 30.03R  
SHERIDAN CLOUDY 40 32 73 NW10 30.04R WCI 33  
BUFFALO CLOUDY 41 33 73 NW18G31 30.01R  
GILLETTE PTSUNNY 41 36 82 NW17 30.00R  
HULETT NOT AVBL  
NEWCASTLE CLOUDY 41 39 93 NW14 30.00R  
 

 
WYZ014>020-022>026-101>103-201800-   
..CENTRAL WYOMING
 
 
 
CITY SKY/WX TMP DP RH WIND PRES REMARKS
 
BIG PINEY MOSUNNY 55 28 35 NW14 30.08R  
PINEDALE CLOUDY 50 30 46 NW12 30.09S  
DUBOIS PTSUNNY 50 28 43 NW21G30 30.01S  
LANDER MOSUNNY 47 33 58 CALM 30.02R  
RIVERTON MOSUNNY 49 36 61 E13 30.02R  
CASPER MOSUNNY 46 35 65 E8 30.02R  
DOUGLAS CLOUDY 45 35 68 N12 30.04R  
 

 
WYZ021-027>030-104>119-201800-   
..SOUTHERN WYOMING
 
 
 
CITY SKY/WX TMP DP RH WIND PRES REMARKS
 
EVANSTON MOSUNNY 54 27 35 W29G35 30.14F  
KEMMERER PTSUNNY 52 28 40 W26G37 30.10S  
FORT BRIDGER NOT AVBL  
ROCK SPRINGS MOSUNNY 54 27 35 W24G38 30.08S  
DIXON FAIR 56 21 26 S12 30.13F  
RAWLINS MOSUNNY 53 26 35 SW22G37 30.06R  
SARATOGA CLOUDY 54 25 32 SW16G28 30.11R  
LARAMIE MOSUNNY 56 23 27 W29G43 30.03S  
CHEYENNE MOSUNNY 61 26 26 NW20G33 29.99R  
TORRINGTON MOSUNNY 52 36 54 NW17G31 29.98R  
PINE BLUFFS FAIR 48 34 57 N16 30.01S  
 

 
 
 
CLICK HERE TO GO TO PREVIOUS BULLETINS.

The Nexlab WY Page Main Text Page